Total_Precipitation_Accumulation
0.21 0.32 0.64 0.81 0.96 0.99 0.91 0.91 0.86 0.83 0.83 0.80 0.76 0.75 0.69 0.68 0.66 0.64 0.62 0.65 0.75 0.89 1.00 1.00 0.96 0.90 0.75 0.61 0.47 0.33 0.30 0.31 0.28 0.22 0.20 0.26 0.33 0.33 0.30 0.30 0.33 0.38 0.52
0.20 0.30 0.59 0.81 1.04 1.08 1.00 0.94 0.80 0.73 0.79 0.85 0.83 0.80 0.76 0.72 0.72 0.69 0.75 0.80 0.90 0.96 0.99 1.00 0.97 0.80 0.63 0.47 0.35 0.27 0.24 0.17 0.12 0.08 0.06 0.11 0.23 0.30 0.29 0.29 0.31 0.43 0.51
0.23 0.32 0.56 0.83 1.06 1.07 1.01 0.92 0.76 0.70 0.76 0.88 0.96 0.88 0.84 0.82 0.83 0.78 0.83 0.91 1.03 1.03 0.90 0.82 0.78 0.59 0.45 0.32 0.26 0.22 0.20 0.16 0.10 0.07 0.07 0.14 0.24 0.39 0.41 0.37 0.43 0.50 0.49
0.28 0.36 0.55 0.88 1.12 1.16 1.09 0.97 0.82 0.78 0.83 0.93 1.08 1.08 0.99 0.91 0.91 0.92 0.89 0.93 0.97 0.90 0.79 0.62 0.56 0.42 0.32 0.27 0.22 0.19 0.18 0.16 0.10 0.07 0.12 0.17 0.25 0.52 0.57 0.50 0.50 0.50 0.45
0.35 0.44 0.63 0.93 1.20 1.25 1.14 1.03 0.90 0.88 0.94 1.01 1.09 1.18 1.15 1.04 1.06 1.05 0.98 0.89 0.87 0.80 0.64 0.49 0.42 0.31 0.24 0.21 0.20 0.19 0.18 0.14 0.09 0.08 0.12 0.19 0.31 0.62 0.64 0.58 0.55 0.51 0.43
0.46 0.59 0.76 1.01 1.28 1.39 1.27 1.14 1.01 1.02 1.07 1.13 1.18 1.26 1.26 1.24 1.28 1.21 0.99 0.82 0.72 0.65 0.54 0.43 0.37 0.27 0.21 0.19 0.19 0.18 0.18 0.15 0.08 0.09 0.11 0.17 0.30 0.60 0.68 0.61 0.56 0.53 0.51
0.53 0.76 0.98 1.18 1.38 1.57 1.50 1.37 1.26 1.21 1.20 1.22 1.26 1.29 1.31 1.31 1.35 1.27 0.97 0.78 0.68 0.61 0.54 0.43 0.37 0.29 0.23 0.21 0.20 0.17 0.16 0.13 0.11 0.13 0.13 0.17 0.33 0.67 0.74 0.69 0.66 0.62 0.57
0.65 0.86 1.18 1.52 1.64 1.78 1.78 1.59 1.48 1.37 1.31 1.31 1.33 1.36 1.39 1.40 1.38 1.31 1.01 0.82 0.70 0.67 0.62 0.51 0.40 0.34 0.27 0.23 0.20 0.18 0.15 0.11 0.10 0.13 0.14 0.18 0.34 0.57 0.63 0.60 0.60 0.59 0.55
0.95 1.03 1.23 1.56 1.80 1.94 1.96 1.70 1.63 1.50 1.36 1.34 1.39 1.43 1.35 1.31 1.32 1.26 1.03 0.88 0.80 0.81 0.76 0.64 0.52 0.42 0.32 0.27 0.22 0.18 0.13 0.09 0.09 0.13 0.12 0.17 0.29 0.49 0.54 0.51 0.54 0.57 0.55
1.39 1.39 1.42 1.60 1.81 2.06 2.10 1.77 1.58 1.46 1.40 1.36 1.32 1.21 1.06 1.02 1.07 1.11 1.01 0.91 0.85 0.87 0.83 0.69 0.59 0.49 0.39 0.31 0.24 0.17 0.12 0.10 0.10 0.13 0.15 0.18 0.32 0.48 0.51 0.52 0.52 0.55 0.57
1.82 1.82 1.77 1.78 1.80 1.96 2.11 1.94 1.78 1.61 1.46 1.36 1.30 1.13 1.05 1.03 1.00 0.89 0.82 0.80 0.82 0.87 0.88 0.75 0.63 0.54 0.40 0.30 0.24 0.19 0.16 0.14 0.14 0.19 0.20 0.24 0.39 0.50 0.56 0.58 0.57 0.56 0.58
1.92 1.93 1.97 1.99 1.95 1.98 2.01 2.02 1.94 1.72 1.56 1.40 1.25 1.16 1.15 1.14 1.07 0.91 0.84 0.80 0.84 0.89 0.94 0.87 0.70 0.60 0.44 0.35 0.30 0.24 0.20 0.17 0.20 0.24 0.24 0.31 0.47 0.59 0.65 0.62 0.54 0.54 0.58
2.18 2.09 2.08 2.16 2.23 2.15 2.09 2.00 1.93 1.72 1.60 1.54 1.39 1.25 1.23 1.35 1.27 1.17 0.99 0.88 0.89 0.86 0.86 0.84 0.77 0.62 0.47 0.39 0.35 0.30 0.25 0.24 0.24 0.27 0.28 0.37 0.57 0.71 0.72 0.66 0.55 0.53 0.55
2.58 2.45 2.41 2.50 2.50 2.39 2.25 2.10 1.98 1.75 1.57 1.52 1.47 1.45 1.38 1.35 1.24 1.16 1.06 0.88 0.85 0.82 0.79 0.79 0.73 0.66 0.60 0.49 0.42 0.40 0.38 0.33 0.32 0.35 0.35 0.36 0.52 0.71 0.81 0.81 0.69 0.67 0.64
2.80 2.83 2.77 2.82 2.85 2.72 2.57 2.32 2.03 1.87 1.65 1.50 1.49 1.51 1.45 1.35 1.25 1.17 1.09 1.05 0.92 0.85 0.80 0.85 0.84 0.77 0.72 0.66 0.55 0.46 0.44 0.44 0.40 0.41 0.41 0.41 0.47 0.62 0.84 0.97 0.98 0.94 0.92
2.83 3.02 3.14 3.14 3.08 2.98 2.78 2.51 2.17 2.00 1.82 1.70 1.59 1.51 1.48 1.45 1.42 1.35 1.19 1.10 1.02 0.93 0.87 0.92 0.94 0.87 0.83 0.74 0.66 0.57 0.51 0.50 0.43 0.40 0.41 0.44 0.44 0.53 0.73 0.97 1.13 1.20 1.21
2.79 3.09 3.28 3.43 3.55 3.32 3.08 2.80 2.49 2.28 2.08 1.91 1.72 1.60 1.51 1.44 1.52 1.51 1.39 1.19 1.07 1.08 1.04 1.03 1.07 1.07 0.97 0.83 0.75 0.68 0.61 0.55 0.49 0.45 0.44 0.44 0.43 0.42 0.55 0.80 1.05 1.18 1.27
2.76 2.99 3.21 3.25 3.52 3.63 3.49 3.21 2.79 2.49 2.29 2.16 2.00 1.82 1.72 1.57 1.60 1.66 1.56 1.43 1.31 1.29 1.27 1.20 1.12 1.04 0.95 0.84 0.76 0.72 0.68 0.64 0.58 0.57 0.57 0.49 0.44 0.39 0.44 0.58 0.74 0.95 1.14
2.78 2.92 3.20 3.24 3.34 3.56 3.69 3.56 3.27 2.97 2.64 2.43 2.33 2.15 2.02 1.90 1.81 1.83 1.76 1.64 1.59 1.53 1.49 1.39 1.26 1.12 1.00 0.89 0.83 0.82 0.81 0.75 0.71 0.66 0.61 0.53 0.50 0.48 0.48 0.49 0.52 0.64 0.80
2.86 3.11 3.31 3.49 3.53 3.73 4.11 4.12 3.83 3.55 3.19 2.91 2.69 2.53 2.37 2.28 2.17 2.05 2.01 1.91 1.84 1.72 1.63 1.59 1.47 1.31 1.15 1.08 1.03 0.94 0.87 0.80 0.79 0.75 0.69 0.63 0.58 0.57 0.61 0.62 0.61 0.59 0.64
2.58 2.92 3.05 3.34 3.58 3.75 3.93 3.97 3.74 3.48 3.24 3.04 2.98 2.91 2.71 2.53 2.46 2.32 2.15 2.15 2.07 1.90 1.71 1.68 1.68 1.56 1.41 1.38 1.33 1.11 0.94 0.85 0.80 0.74 0.77 0.78 0.70 0.64 0.66 0.74 0.79 0.73 0.61
2.22 2.44 2.67 2.91 3.19 3.42 3.51 3.57 3.66 3.67 3.42 3.11 3.01 3.01 2.96 2.85 2.69 2.50 2.32 2.24 2.21 2.14 1.92 1.78 1.81 1.79 1.67 1.62 1.63 1.57 1.37 1.16 0.90 0.78 0.78 0.78 0.77 0.75 0.71 0.70 0.73 0.77 0.74
1.96 2.14 2.35 2.60 2.77 2.92 3.27 3.56 3.64 3.86 3.78 3.34 2.98 2.81 2.91 2.99 2.98 2.78 2.54 2.47 2.41 2.38 2.26 2.09 1.98 1.95 1.91 1.82 1.83 1.98 1.78 1.45 1.09 0.90 0.86 0.84 0.81 0.84 0.84 0.79 0.76 0.76 0.78
1.69 1.86 2.10 2.41 2.64 2.70 2.99 3.23 3.24 3.18 3.26 3.06 2.88 2.85 2.95 2.99 3.04 3.04 2.86 2.63 2.54 2.50 2.43 2.47 2.45 2.31 2.20 2.02 1.88 1.77 1.71 1.54 1.47 1.24 1.00 0.96 0.92 0.87 0.92 0.90 0.85 0.84 0.81
1.47 1.56 1.79 2.15 2.46 2.60 2.70 2.88 3.05 3.07 3.06 3.13 3.09 3.00 2.92 2.84 2.87 3.00 2.98 2.80 2.51 2.38 2.32 2.36 2.43 2.47 2.34 2.15 1.99 1.88 1.77 1.56 1.46 1.49 1.29 1.11 1.07 0.94 0.90 0.95 0.98 0.99 1.01
1.29 1.30 1.48 1.73 2.14 2.51 2.63 2.67 2.76 2.83 2.80 2.89 3.03 3.01 2.96 2.83 2.74 2.76 2.78 2.69 2.55 2.37 2.26 2.28 2.38 2.46 2.48 2.40 2.20 2.00 1.91 1.77 1.53 1.53 1.48 1.32 1.30 1.17 1.03 1.02 1.08 1.13 1.15